Regional Weather Roundup
Issued by NWS

Home | Current Version | Previous Version | Text Only | Print | Product List | Glossary Off
Versions: 1 2 3 4 5 6 7 8 9 10 11 12 13 14 15 16 17 18 19 20 21 22 23 24 25 26 27 28

000
ASUS45 KBOI 271610
RWRID

IDAHO REGIONAL WEATHER ROUNDUP
NATIONAL WEATHER SERVICE BOISE ID
1000 AM MDT WED JUL 27 2016

NOTE: "FAIR" INDICATES FEW OR NO CLOUDS BELOW 12000 FEET
WITH NO SIGNIFICANT WEATHER AND/OR OBSTRUCTIONS TO VISIBILITY

IDZ012-014-271700-
SOUTHWEST IDAHO


CITY           SKY/WX    TMP DP  RH WIND       PRES   REMARKS
BOISE          SUNNY     81  43  26 VRB3      30.06S HAZE
CALDWELL       SUNNY     77  57  50 NW3       30.05S
MOUNTAIN HOME  SUNNY     79  45  30 VRB6      30.07R
$$

IDZ016-017-271700-
SOUTHCENTRAL IDAHO


CITY           SKY/WX    TMP DP  RH WIND       PRES   REMARKS
BURLEY         SUNNY     73  48  41 CALM      30.15S
JEROME         SUNNY     76  46  34 E8        30.15S
TWIN FALLS     SUNNY     81  41  24 VRB7      30.15S
$$

IDZ019>023-271700-
SOUTHEAST IDAHO


CITY           SKY/WX    TMP DP  RH WIND       PRES   REMARKS
IDAHO FALLS    SUNNY     71  43  36 NE5       30.20R
POCATELLO      SUNNY     71  44  37 NW8       30.19R
REXBURG        SUNNY     69  46  43 E3        30.20S
$$

IDZ006-010-011-018-031-032-271700-
CENTRAL IDAHO MOUNTAINS


CITY           SKY/WX    TMP DP  RH WIND       PRES   REMARKS
MCCALL         SUNNY     69  49  48 CALM      30.20S
HAILEY         MOSUNNY   72  41  33 NW12      30.25S
STANLEY          N/A     62  38  40 CALM      30.32F
SALMON         SUNNY     63  46  55 CALM      30.18F
CHALLIS        SUNNY     68  41  37 CALM      30.23F
$$

IDZ002-004-006-007-026-271700-
NORTHERN IDAHO


CITY           SKY/WX    TMP DP  RH WIND       PRES   REMARKS
LEWISTON       SUNNY     78  52  40 CALM      30.04S
LOWELL           N/A     68  57  68 N3        30.07F
COEUR D`ALENE  SUNNY     72  55  56 NE12      30.07S
MULLAN PASS    SUNNY     66  49  54 VRB3      30.27R
$$




USA.gov is the U.S. government's official web portal to all federal, state and local government web resources and services.